Regional Weather Roundup
Issued by NWS Upton, NY

Current Version | Previous Version | Graphics & Text | Print | Product List | Glossary Off
Versions: 1 2 3 4 5 6 7 8 9 10 11 12 13 14 15 16 17 18 19 20 21 22 23 24 25 26 27

000
ASUS41 KOKX 261105
RWROKX

REGIONAL WEATHER ROUNDUP
NATIONAL WEATHER SERVICE NEW YORK NY
700 AM EDT TUE JUL 26 2016

NOTE: "FAIR" INDICATES FEW OR NO CLOUDS BELOW 12,000 FEET WITH NO
SIGNIFICANT WEATHER AND/OR OBSTRUCTIONS TO VISIBILITY.

NYZ071-072-176-178-NJZ106-104-261200-
NEW YORK CITY METRO AREA

CITY           SKY/WX    TMP DP  RH WIND       PRES   REMARKS
Central Park   SUNNY     72  68  87 CALM      29.93R
LaGuardia APRT MOSUNNY   76  69  79 NW13      29.89R
Kennedy INTL   MOSUNNY   76  69  79 NW9       29.91R
Newark/Liberty MOSUNNY   74  69  85 SW7       29.91R
Bronx Bot Gard   N/A     73  66  78 NW5       29.90S
Wall St Helipt SUNNY     73  70  88 W6        29.92R
Teterboro      SUNNY     73  68  84 W3        29.89R
$$

NYZ177-179-078>081-261200-
LONG ISLAND NEW YORK

CITY           SKY/WX    TMP DP  RH WIND       PRES   REMARKS
Farmingdale    SUNNY     74  69  85 NW7       29.89R
MacArthur/ISP  MOSUNNY   73  69  87 NW6       29.88R
Shirley        SUNNY     73  70  90 NW5       29.89R
Riverhead      NOT AVBL
Westhampton    SUNNY     72  69  90 NW7       29.90R
Southhampton     N/A     73  70  88 NW7       29.84R
Bridgehampton    N/A     70  70 100 CALM      29.86S
East Hampton   FAIR      73  69  89 N3        29.87R
Montauk          N/A     75  69  81 W7        29.88R
$$

NYZ052-065-067-261200-
HUDSON VALLEY

CITY           SKY/WX    TMP DP  RH WIND       PRES   REMARKS
White Plains   SUNNY     72  69  90 W6        29.90R
Newburgh       SUNNY     68  68 100 W9        29.92R
Montgomery     SUNNY     70  68  93 SW6       29.91R
Poughkeepsie   SUNNY     72  68  87 VRB5      29.88R
Albany         MOSUNNY   71  67  87 CALM      29.88R
$$

NJZ001-105-106-008-010-013-015-019>022-104-261200-
NEW JERSEY

CITY           SKY/WX    TMP DP  RH WIND       PRES   REMARKS
Newark/Liberty MOSUNNY   74  69  85 SW7       29.91R
Teterboro      SUNNY     73  68  84 W3        29.89R
Caldwell       SUNNY     71  69  93 CALM      29.92R
Morristown     MOSUNNY   68  66  94 CALM      29.92R
Somerville     SUNNY     70  68  93 CALM      29.91R FOG
Linden         FAIR      72  68  88 CALM      29.93R
Sussex         FOG       66  66 100 SW3       29.93R VSB 1/4
Abdover          N/A     67  66  97 SW3       29.95R
Trenton        SUNNY     72  69  90 NW5       29.92R
Millville      MOSUNNY   75  72  90 N5        29.94R FOG
Atlantic City  SUNNY     74  71  91 NW7       29.93R
Wrightstown    SUNNY     74  72  94 W5        29.91R
Toms River     MOSUNNY   73  72  96 W7        29.93R
Belmar         SUNNY     73  70  90 W7        29.93R
$$

PAZ047>061-062-071-261200-
EASTERN PENNSYLVANIA

CITY           SKY/WX    TMP DP  RH WIND       PRES   REMARKS
Philadelphia   PTSUNNY   75  70  84 W7        29.94R
Allentown      CLOUDY    68  66  93 CALM      29.95R FOG
Scranton       CLOUDY    69  68  96 SW9       29.96R FOG
$$

CTZ002-004>006-009-010-012-RIZ004-006-007-MAZ004-011-015-261200-
SOUTHERN NEW ENGLAND
 IN CT

CITY           SKY/WX    TMP DP  RH WIND       PRES   REMARKS
Bradley INTL   MOSUNNY   73  66  78 W7        29.85R
Hartford       SUNNY     76  68  76 S5        29.86R
Danbury        SUNNY     69  67  93 SW6       29.91R
Wtrbury/Oxford MOSUNNY   68  64  88 NW5       29.91R
Bridgeport     SUNNY     73  68  84 W5        29.88R
Meriden        SUNNY     70  67  90 CALM      29.87R
New Haven      MOSUNNY   72  69  90 NW5       29.88R
Chester        FAIR      70  68  94 CALM      29.88S
Groton         SUNNY     74  68  81 NW5       29.86R
Wilimantic     NOT AVBL

 IN RI

CITY           SKY/WX    TMP DP  RH WIND       PRES   REMARKS
Providence     MOSUNNY   74  67  78 W8        29.84R
Block Island   PTSUNNY   70  69  97 W10       29.87R
Westerly       SUNNY     72  67  84 CALM      29.86R
 IN MA

CITY           SKY/WX    TMP DP  RH WIND       PRES   REMARKS
Boston         MOSUNNY   78  67  68 W13G21    29.81R
Worchester     SUNNY     70  65  84 W14       29.87R
Westfield      SUNNY     70  66  87 S10       29.86R
Provincetown   SUNNY     72  69  90 W14       29.81R
Nantucket      SUNNY     72  69  90 W12       29.83R
$$

ANZ330-335-338-340-345-350-353-355-261200-
COASTAL MARINE OBSERVATIONS


STATION/POSITION TIME  SKY/WX   TEMP    WIND        PRES    VSBY  WAVE
                                AIR SEA DIR/SP/G                  HT/PER
                 (UTC)          (F)     (DEG/KT/KT) (MB)    (MI)  (FT/S)
NY HARB ENTRANCE 0950            73 72  290/ 14/ 16 1011.3          2/ 6
20S FIRE ISLAND  0950            75 73  300/ 14/ 17 1010.9          3/ 6
GREAT SOUTH BAY  1000            75 80  310/  8/ 12   N/A
23 SSW MONTAUK P 0950            71 68  260/ 10/ 12 1011.5          3/ 5
15 E BARNEGAT LI 1022               76                N/A           3/ 6
HUDSON CANYON    0950            77 77              1011.2          3/ 6
KINGS POINT      1000            73 72              1011.8
EXECUTION ROCKS  1000            73     290/  4/  8   N/A
CENTRAL LI SOUND 1000            73 73  280/  8/ 10   N/A           1/ 4
EASTERN LI SOUND 1000            69 67  280/  8/ 10   N/A
ROBBINS REEF     1012            73     280/  5/  6 1011.7
$$


>>>>>>>>>>>>>>>>>>>>>>>>>>>> KEY <<<<<<<<<<<<<<<<<<<<<<<<<<<
>                                                          <
>     SKY/WX - Sky Condition/Present Weather               <
>     TMP    - Temperature in Fahrenheit                   <
>     DP     - Dew Point in Fahrenheit                     <
>     RH     - Relative Humidity in Percent                <
>     WIND   - Direction (from) and Speed in MPH           <
>     PRES   - Mean Sea Level Pressure (inches of Hg)      <
>     WCI    - Wind Chill Index                            <
>     VSB    - VISIBILITY IN MILES                         <
>     HX     - HEAT INDEX                                  <
>     TC     - TEMPERATURE IN CELSIUS                      <
>     VRB    - VARIABLE WIND DIRECTION                     <
>                                                          <
>>>>>>>>>>>>>>>>>>>>>>>>>>>> KEY <<<<<<<<<<<<<<<<<<<<<<<<<<<




USA.gov is the U.S. government's official web portal to all federal, state and local government web resources and services.